Regional Weather Roundup
Issued by NWS

Home | Current Version | Previous Version | Text Only | Print | Product List | Glossary On
Versions: 1 2 3 4 5 6 7 8 9 10 11 12 13 14 15 16 17 18 19 20 21 22 23 24 25 26 27
000
ASUS45 KPSR 251810
RWRAZ

ARIZONA HOURLY REGIONAL WEATHER ROUNDUP
NATIONAL WEATHER SERVICE PHOENIX AZ
1100 AM MST WED MAY 25 2016

NOTE: FAIR INDICATES FEW OR NO CLOUDS BELOW 12,000 FEET WITH NO
SIGNIFICANT WEATHER AND/OR OBSTRUCTIONS TO VISIBILITY.

AZZ001>003-036-251900-
NORTHWEST ARIZONA

CITY           SKY/WX    TMP DP  RH WIND       PRES   REMARKS
BULLHEAD CITY  SUNNY     79  36  21 S12       29.95S
KINGMAN        SUNNY     73  16  11 S17G26    30.00F
6HR MIN TEMP:  43; 6HR MAX TEMP:  73;

$$

AZZ004>008-015-016-018-251900-
NORTH CENTRAL ARIZONA

CITY           SKY/WX    TMP DP  RH WIND       PRES   REMARKS
GRAND CANYON   SUNNY     61  18  18 VRB5G18   30.14S
6HR MIN TEMP:  25; 6HR MAX TEMP:  61;

WILLIAMS       SUNNY     59  16  18 SW17G24   30.20S
PRESCOTT       SUNNY     67  22  18 SW13      30.08S
6HR MIN TEMP:  41; 6HR MAX TEMP:  67;

FLAGSTAFF      NOT AVBL
PAYSON         SUNNY     68  21  17 S12G20    30.13S
PAGE           SUNNY     71  18  13 N7        30.02F
6HR MIN TEMP:  52; 6HR MAX TEMP:  71;

$$

AZZ009>014-017-251900-
NORTHEAST ARIZONA

CITY           SKY/WX    TMP DP  RH WIND       PRES   REMARKS
WINSLOW        SUNNY     72  23  16 VRB3      30.06F
6HR MIN TEMP:  44; 6HR MAX TEMP:  72;

SAINT JOHNS    SUNNY     72  19  13 S12       30.09F
6HR MIN TEMP:  38; 6HR MAX TEMP:  72;

SHOW LOW       SUNNY     64  23  20 S20G26    30.15F
$$

AZZ023-251900-
GREATER PHOENIX AREA

CITY           SKY/WX    TMP DP  RH WIND       PRES   REMARKS
PHOENIX        SUNNY     82  30  15 VRB6G16   29.94F
6HR MIN TEMP:  66; 6HR MAX TEMP:  83;

BUCKEYE        SUNNY     81  36  19 S9        29.96F
GLENDALE       SUNNY     81  30  16 VRB3      29.97S
LUKE AFB       SUNNY     81  32  16 VRB2      29.94F
6HR MIN TEMP:  58; 6HR MAX TEMP:  82; 6HR PCP: TRACE;

DEER VALLEY    SUNNY     79  29  16 S7        29.96S
6HR MIN TEMP:  58; 6HR MAX TEMP:  81;

SCOTTSDALE     SUNNY     80  29  15 VRB3      29.97F
6HR MIN TEMP:  61; 6HR MAX TEMP:  81;

MESA-GATEWAY   SUNNY     81  34  18 S12G18    29.97
CHANDLER       SUNNY     81  34  18 S9        29.96F
$$

AZZ027-028-251900-
SOUTHWEST MARICOPA COUNTY AND PINAL COUNTY

CITY           SKY/WX    TMP DP  RH WIND       PRES   REMARKS
CASA GRANDE    SUNNY     81  34  18 S12       29.97F
6HR MIN TEMP:  55; 6HR MAX TEMP:  82;

GILA BEND      FAIR      84  32  15 S13G22    29.93F
6HR MIN TEMP:  60; 6HR MAX TEMP:  85;

$$

AZZ503-504-507>509-251900-
SOUTHEAST ARIZONA

CITY           SKY/WX    TMP DP  RH WIND       PRES   REMARKS
TUCSON         SUNNY     84  23  10 W8        30.02F
6HR MIN TEMP:  59; 6HR MAX TEMP:  84;

DAVIS-MONTHAN  SUNNY     81  26  13 SW12      30.01F
6HR MIN TEMP:  59; 6HR MAX TEMP:  81;

RYAN FIELD     SUNNY     82  28  14 SW18      30.01F
NOGALES        SUNNY     80  24  12 S13G20    30.08F
6HR MIN TEMP:  50; 6HR MAX TEMP:  80;

SIERRA VISTA   SUNNY     78  15   9 SW18G24   30.11F
6HR MIN TEMP:  61; 6HR MAX TEMP:  78;

DOUGLAS        SUNNY     82  21  10 S21       30.08F
6HR MIN TEMP:  52; 6HR MAX TEMP:  82;

SAFFORD        SUNNY     82  22  11 MISG      30.00F
6HR MIN TEMP:  53; 6HR MAX TEMP:  83;

$$

AZZ020-021-025-026-031-251900-
SOUTHWEST ARIZONA

CITY           SKY/WX    TMP DP  RH WIND       PRES   REMARKS
YUMA           SUNNY     77  36  22 W12       29.96R
6HR MIN TEMP:  62; 6HR MAX TEMP:  77;

$$

CAZ031-033-041-043-047-048-061-251900-
SOUTHERN CALIFORNIA

CITY           SKY/WX    TMP DP  RH WIND       PRES   REMARKS
DOWNTOWN L.A.  CLOUDY    65  50  58 VRB5      30.09R
6HR MIN TEMP:  56; 6HR MAX TEMP:  66;

L.A. AIRPORT   PTSUNNY   63  52  67 W13       30.10R
6HR MIN TEMP:  57; 6HR MAX TEMP:  64;

SAN DIEGO      MOSUNNY   68  48  48 W10       30.12R
6HR MIN TEMP:  61; 6HR MAX TEMP:  69;

BURBANK        CLOUDY    61  47  59 CALM      30.08S
6HR MIN TEMP:  55; 6HR MAX TEMP:  62;

ONTARIO        CLOUDY    62  45  53 SW8       30.08R
6HR MIN TEMP:  54; 6HR MAX TEMP:  63;

RIVERSIDE      CLOUDY    65  45  48 NW7       30.08S
6HR MIN TEMP:  56; 6HR MAX TEMP:  65;

EL CENTRO NAS  MOSUNNY   77  39  25 W16G24    29.98S
6HR MIN TEMP:  56; 6HR MAX TEMP:  77; 6HR PCP: TRACE;

IMPERIAL       SUNNY     77  41  27 W15       29.95F
6HR MIN TEMP:  56; 6HR MAX TEMP:  77;

BLYTHE         SUNNY     77  41  27 VRB3      29.94S
6HR MIN TEMP:  56; 6HR MAX TEMP:  78;

NEEDLES        SUNNY     81  37  20 S10G18    29.93S
6HR MIN TEMP:  66; 6HR MAX TEMP:  81;

$$

NVZ020-UTZ003-251900-
SOUTHERN NEVADA-UTAH

CITY           SKY/WX    TMP DP  RH WIND       PRES   REMARKS
LAS VEGAS      MOSUNNY   74  35  24 N3        29.92F
6HR MIN TEMP:  61; 6HR MAX TEMP:  74;

SALT LAKE CITY MOSUNNY   62  40  44 CALM      30.03S
6HR MIN TEMP:  53; 6HR MAX TEMP:  65; 6HR PCP: TRACE;

$$

NMZ009-TXZ055-251900-
NEW MEXICO-WEST TEXAS

CITY           SKY/WX    TMP DP  RH WIND       PRES   REMARKS
ALBUQUERQUE    SUNNY     71  16  12 CALM      30.13F
6HR MIN TEMP:  54; 6HR MAX TEMP:  72;

EL PASO        MOSUNNY   84  30  14 W8G21     30.07F
6HR MIN TEMP:  66; 6HR MAX TEMP:  85;

$$


........................KEY........................
SKY/WX - SKY CONDITION/WEATHER
TMP    - TEMPERATURE IN FAHRENHEIT
DP     - DEW POINT IN FAHRENHEIT
RH     - RELATIVE HUMIDITY IN PERCENT
WIND   - DIRECTION AND SPEED IN MILES PER HOUR (MPH)
VRB    - VARIABLE WIND DIRECTION
PRES   - MEAN SEA LEVEL PRESSURE IN INCHES OF MERCURY
         F - FALLING PRESSURE   R - RISING PRESSURE
         S - STEADY PRESSURE
VSB    - VISIBILITY IN MILES
HX     - HEAT INDEX IN FAHRENHEIT
WCI    - WIND CHILL INDEX IN FAHRENHEIT
TC     - TEMPERATURE IN CELSIUS WHICH IS ALSO KNOWN AS
         TEMPERATURE IN CENTIGRADE
AFB    - AIR FORCE BASE
         LUKE AFB IS LUKE AIR FORCE BASE
         DAVIS-MONTHAN IS DAVIS-MONTHAN AIR FORCE BASE
NAS    - NAVAL AIR STATION
         EL CENTRO NAS IS EL CENTRO NAVAL AIR STATION
N/A    - NOT AVAILABLE





USA.gov is the U.S. government's official web portal to all federal, state and local government web resources and services.